Regional Weather Roundup
Issued by NWS Sioux Falls, SD

Home | Current Version | Previous Version | Graphics & Text | Print | Product List | Glossary On
Versions: 1 2 3 4 5 6 7 8 9 10 11 12 13 14 15 16 17 18 19 20 21 22 23 24 25 26 27 28 29 30 31 32 33 34 35 36 37 38 39 40 41 42 43 44 45 46 47 48 49 50
000
ASUS43 KFSD 250602
RWRFSD

WEATHER ROUNDUP FOR SE SOUTH DAKOTA/SW MINNESOTA/NW IOWA
NATIONAL WEATHER SERVICE SIOUX FALLS SD
1200 AM CST SAT FEB 25 2017

NOTE: "FAIR" INDICATES FEW OR NO CLOUDS BELOW 12,000 FEET WITH NO
SIGNIFICANT WEATHER AND OR OBSTRUCTIONS TO VISIBILITY.


SDZ038>040-050-052>070-250700-
SOUTHEAST SOUTH DAKOTA

CITY           SKY/WX    TMP DP  RH WIND       PRES   REMARKS
BROOKINGS      MOCLDY    18  14  84 NW12      30.03S WCI   5
CHAMBERLAIN    CLOUDY    22  17  79 CALM      30.12F
6HR MIN TEMP:  22; 6HR MAX TEMP:  32;

HURON          CLEAR     18  15  88 NW8       30.11S WCI   8
6HR MIN TEMP:  18; 6HR MAX TEMP:  29;

MADISON        FAIR      18  18 100 N15       30.04S WCI   3
MITCHELL       CLEAR     21  16  81 NW10      30.12S WCI  10
6HR MIN TEMP:  21; 6HR MAX TEMP:  30;

SIOUX FALLS    PTCLDY    19  14  81 NW12      30.05R WCI   7
6HR MIN TEMP:  19; 6HR MAX TEMP:  26;

WINNER         FAIR      16  10  77 SW5       30.11F WCI   9
YANKTON        CLOUDY    19  12  73 NW13      30.10S WCI   7
$$

MNZ071-072-080-081-089-090-097-098-250700-
SOUTHWEST MINNESOTA

CITY           SKY/WX    TMP DP  RH WIND       PRES   REMARKS
FAIRMONT       PTCLDY    18  14  84 NW25      29.93R WCI   0
JACKSON        PTCLDY    18  12  79 NW26G33   29.94S WCI  -1
LUVERNE        CLEAR     19  12  73 NW16      30.02S WCI   5
MARSHALL       CLEAR     18  11  74 NW28G35   30.00F WCI  -1
6HR MIN TEMP:  18; 6HR MAX TEMP:  24; 6HR PCP: TRACE;

MONTEVIDEO     CLEAR     18  10  73 N18G31    30.03S WCI   2
PIPESTONE      CLEAR     19  10  68 N21G26    30.00S WCI   3
REDWOOD FALLS  CLEAR     19   9  65 N18G30    29.98S WCI   4
TRACY          CLEAR     19  13  75 NW24      30.00S WCI   2
WINDOM         CLEAR     18  12  79 NW28      29.95S WCI  -1
WORTHINGTON    CLEAR     16  11  80 NW22      29.98R WCI  -2
$$

IAZ001>003-012>014-020>022-031-032-NEZ013-014-SDZ071-250700-
NORTHWEST IOWA

CITY           SKY/WX    TMP DP  RH WIND       PRES   REMARKS
CHEROKEE       CLEAR     19  13  79 NW12G23   30.01R WCI   6
DENISON        PTCLDY    19  14  79 NW17G24   29.99R WCI   4
ESTHERVILLE    CLEAR     16  13  88 NW22G30   29.94R WCI  -2
LE MARS        CLEAR     19  12  73 NW13      30.06R WCI   7
SHELDON        CLEAR     18  16  93 NW17G24   30.00R WCI   2
SIOUX CITY     CLEAR     21  13  71 NW17      30.06R WCI   7
6HR MIN TEMP:  21; 6HR MAX TEMP:  27;

SPENCER        CLOUDY    18  12  77 NW18G29   29.97R WCI   2
6HR MIN TEMP:  18; 6HR MAX TEMP:  23;

STORM LAKE     PTCLDY    18  12  79 NW21      29.97R WCI   1
$$

ABBREVIATIONS USED IN REMARKS
   TC - TEMPERATURE IN CELSIUS
  WCI - WIND CHILL INDEX
   HX - HEAT INDEX
  VSB - VISIBILITY




USA.gov is the U.S. government's official web portal to all federal, state and local government web resources and services.